Powrót do katalogu

FENGYUN 1C DEB

AktywnySSO
NORAD 31758·DEBRIS·🇨🇳 China

Wystrzelony May 10, 1999 z Taiyuan Satellite Launch Center

Loading…

Następne Przeloty (najbliższe 24 godziny)

TLE

ŚwieżeSource: Space-Track

Epoka: Sep 12, 2026, 23:03 UTC

1 31758U 99025CFH 26255.96064709  .00011068  00000-0  16900-2 0  9994
2 31758  98.0594 256.9508 0292686 329.7282  28.7279 14.49035451981630

Śledź FENGYUN 1C DEB w czasie rzeczywistym z AllMySat

Download on the App Store